KD8DNO-13 Weather Reports


time (UTC)temp
C
wind
direction
speed
KPH
gust
KPH
rain 1hr
cm
rain 24hr
cm
rain mn
cm
humidity
%
barometer
mb
20260510180304 18 293 3.2 3.2 0.00 0.00 0.00 44 1017.9
20260510175804 18 293 6.4 6.4 0.00 0.00 0.00 46 1017.6
20260510175306 18 315 4.8 4.8 0.00 0.00 0.00 44 1017.6
20260510174804 17 293 3.2 3.2 0.00 0.00 0.00 43 1017.6
20260510174304 18 293 3.2 6.4 0.00 0.00 0.00 45 1017.6
20260510173804 18 338 6.4 8.0 0.00 0.00 0.00 47 1017.6
20260510173304 18 45 3.2 3.2 0.00 0.00 0.00 43 1017.6
20260510172805 17 315 6.4 6.4 0.00 0.00 0.00 48 1017.6
20260510172306 17 315 9.7 9.7 0.00 0.00 0.00 49 1017.6
20260510171804 17 270 3.2 6.4 0.00 0.00 0.00 49 1017.6
20260510171304 17 0 3.2 3.2 0.00 0.00 0.00 46 1017.6
20260510170804 18 315 4.8 4.8 0.00 0.00 0.00 46 1017.6
20260510170304 17 270 6.4 6.4 0.00 0.00 0.00 47 1017.6
20260510165804 17 338 4.8 6.4 0.00 0.00 0.00 48 1017.9
20260510165306 17 293 4.8 4.8 0.00 0.00 0.00 45 1017.9
20260510164804 17 315 4.8 4.8 0.00 0.00 0.00 47 1017.9
20260510164304 17 23 3.2 3.2 0.00 0.00 0.00 45 1017.9
20260510163804 17 90 4.8 4.8 0.00 0.00 0.00 48 1017.9
20260510163304 17 293 6.4 6.4 0.00 0.00 0.00 42 1017.9
20260510162804 17 338 3.2 3.2 0.00 0.00 0.00 42 1017.9
20260510162306 17 270 4.8 4.8 0.00 0.00 0.00 41 1017.6
20260510161804 17 338 3.2 3.2 0.00 0.00 0.00 47 1017.6
20260510161304 17 68 3.2 6.4 0.00 0.00 0.00 43 1017.6
20260510160804 17 338 6.4 6.4 0.00 0.00 0.00 45 1017.6
20260510160304 17 0 3.2 3.2 0.00 0.00 0.00 42 1017.6
20260510155804 17 45 3.2 3.2 0.00 0.00 0.00 42 1017.6
20260510155306 17 45 3.2 8.0 0.00 0.00 0.00 43 1017.6
20260510154804 17 315 3.2 6.4 0.00 0.00 0.00 48 1017.2
20260510154304 17 315 6.4 6.4 0.00 0.00 0.00 51 1017.2
20260510153804 17 315 3.2 3.2 0.00 0.00 0.00 47 1017.2
20260510153304 17 293 8.0 8.0 0.00 0.00 0.00 46 1017.2
20260510152804 16 338 3.2 3.2 0.00 0.00 0.00 52 1017.2
20260510152307 16 158 3.2 3.2 0.00 0.00 0.00 56 1017.2
20260510151804 16 248 3.2 4.8 0.00 0.00 0.00 54 1017.2
20260510151304 16 90 0.0 3.2 0.00 0.00 0.00 55 1016.9
20260510150804 15 315 4.8 6.4 0.00 0.00 0.00 55 1016.9
20260510150304 15 0 3.2 3.2 0.00 0.00 0.00 55 1016.9
20260510145803 15 293 6.4 6.4 0.00 0.00 0.00 57 1016.9
20260510145306 15 315 3.2 3.2 0.00 0.00 0.00 55 1016.9
20260510144805 15 113 4.8 4.8 0.00 0.00 0.00 57 1016.5
20260510144304 14 315 3.2 3.2 0.00 0.00 0.00 56 1016.5
20260510143804 14 293 4.8 4.8 0.00 0.00 0.00 58 1016.5
20260510143304 13 338 3.2 6.4 0.00 0.00 0.00 57 1016.2
20260510142804 13 135 3.2 3.2 0.00 0.00 0.00 57 1016.2
20260510142306 13 158 1.6 3.2 0.00 0.00 0.00 60 1016.2
20260510141803 13 315 6.4 8.0 0.00 0.00 0.00 58 1016.2
20260510141304 14 158 3.2 3.2 0.00 0.00 0.00 60 1016.2
20260510140804 13 135 3.2 3.2 0.00 0.00 0.00 59 1016.2
20260510140303 13 338 3.2 3.2 0.00 0.00 0.00 58 1016.2
20260510135804 13 23 3.2 4.8 0.00 0.00 0.00 59 1016.2
20260510135306 13 113 3.2 3.2 0.00 0.00 0.00 60 1016.2
20260510134804 12 203 3.2 3.2 0.00 0.00 0.00 60 1015.9
20260510134304 13 315 3.2 3.2 0.00 0.00 0.00 57 1015.9
20260510133804 13 293 0.0 1.6 0.00 0.00 0.00 60 1015.9
20260510133304 13 338 3.2 3.2 0.00 0.00 0.00 60 1015.9
20260510132804 12 270 3.2 3.2 0.00 0.00 0.00 63 1015.9
20260510132306 12 293 3.2 3.2 0.00 0.00 0.00 60 1015.9
20260510131804 12 315 3.2 4.8 0.00 0.00 0.00 60 1015.9
20260510131304 12 315 3.2 3.2 0.00 0.00 0.00 63 1015.9
20260510130804 12 270 0.0 0.0 0.00 0.00 0.00 62 1015.9
20260510130303 12 315 3.2 3.2 0.00 0.00 0.00 64 1015.9
20260510125804 12 270 3.2 3.2 0.00 0.00 0.00 64 1015.5
20260510125306 12 270 3.2 3.2 0.00 0.00 0.00 67 1015.5
20260510124304 11 180 0.0 0.0 0.00 0.00 0.00 68 1015.2
20260510123804 11 68 0.0 0.0 0.00 0.00 0.00 67 1015.2
20260510123304 11 315 3.2 3.2 0.00 0.00 0.00 67 1015.2
20260510122804 11 248 0.0 0.0 0.00 0.00 0.00 68 1015.2
20260510122314 11 45 0.0 0.0 0.00 0.00 0.00 67 1015.2
20260510121804 11 180 0.0 0.0 0.00 0.00 0.00 71 1015.2
20260510121304 11 270 0.0 0.0 0.00 0.00 0.00 73 1015.2
20260510120804 11 23 0.0 0.0 0.00 0.00 0.00 70 1015.2
20260510120304 11 248 1.6 3.2 0.00 0.00 0.00 70 1015.2
20260510115804 11 270 3.2 3.2 0.00 0.00 0.00 71 1014.9
20260510115306 11 293 0.0 0.0 0.00 0.00 0.00 71 1014.9
20260510114804 11 23 0.0 0.0 0.00 0.00 0.00 74 1014.5
20260510114304 11 113 0.0 0.0 0.00 0.00 0.00 76 1014.5
20260510113804 11 338 0.0 1.6 0.00 0.00 0.00 74 1014.5
20260510113304 11 270 0.0 0.0 0.00 0.00 0.00 73 1014.2
20260510112804 11 270 0.0 0.0 0.00 0.00 0.00 72 1014.2
20260510112306 11 338 3.2 3.2 0.00 0.00 0.00 71 1014.2
20260510111804 11 293 0.0 0.0 0.00 0.00 0.00 69 1014.2
20260510111304 11 225 0.0 0.0 0.00 0.00 0.00 69 1014.2
20260510110804 11 68 1.6 1.6 0.00 0.00 0.00 70 1014.2
20260510110304 11 315 3.2 3.2 0.00 0.00 0.00 72 1014.2
20260510105804 11 293 0.0 0.0 0.00 0.00 0.00 71 1013.5
20260510105306 11 293 0.0 3.2 0.00 0.00 0.00 70 1013.5
20260510104804 12 315 4.8 4.8 0.00 0.00 0.00 72 1013.5
20260510104304 12 113 0.0 0.0 0.00 0.00 0.00 73 1013.5
20260510103804 12 315 0.0 1.6 0.00 0.00 0.00 75 1013.5
20260510103304 12 338 3.2 3.2 0.00 0.00 0.00 74 1013.2
20260510102804 12 158 0.0 0.0 0.00 0.00 0.00 76 1013.2
20260510102306 12 270 3.2 3.2 0.00 0.00 0.00 78 1013.2
20260510101804 12 315 3.2 3.2 0.00 0.00 0.00 81 1013.2
20260510101304 12 68 0.0 0.0 0.00 0.00 0.00 83 1013.2
20260510100804 12 203 0.0 0.0 0.00 0.00 0.00 80 1013.2
20260510100304 12 23 0.0 0.0 0.00 0.00 0.00 80 1013.2
20260510095804 12 315 0.0 0.0 0.00 0.00 0.00 79 1013.2
20260510095306 12 315 3.2 3.2 0.00 0.00 0.00 79 1013.2
20260510094804 12 293 3.2 3.2 0.00 0.00 0.00 79 1012.5
20260510094304 12 315 3.2 4.8 0.00 0.00 0.00 77 1012.5
20260510093804 12 315 3.2 3.2 0.00 0.00 0.00 77 1012.5
20260510093304 12 293 3.2 3.2 0.00 0.00 0.00 78 1012.1
20260510092804 12 293 3.2 3.2 0.00 0.00 0.00 77 1012.1
20260510092306 12 315 4.8 4.8 0.00 0.00 0.00 78 1011.8
20260510091804 13 293 3.2 3.2 0.00 0.00 0.00 77 1011.8
20260510091304 13 293 3.2 3.2 0.00 0.00 0.00 78 1011.8
20260510090803 13 315 3.2 6.4 0.00 0.00 0.00 78 1011.8
20260510090304 13 315 3.2 3.2 0.00 0.00 0.00 78 1011.8
20260510085804 13 315 3.2 3.2 0.00 0.00 0.00 79 1011.8
20260510085306 13 293 3.2 6.4 0.00 0.00 0.00 79 1011.8
20260510084804 13 270 4.8 4.8 0.00 0.00 0.00 79 1011.1
20260510084304 13 293 3.2 6.4 0.00 0.00 0.00 78 1011.1
20260510083804 13 315 3.2 3.2 0.00 0.00 0.00 78 1011.1
20260510083304 13 315 3.2 6.4 0.00 0.00 0.00 77 1011.1
20260510082804 14 293 3.2 4.8 0.00 0.00 0.00 76 1011.1
20260510082306 14 293 3.2 3.2 0.00 0.00 0.00 76 1010.8
20260510081804 14 270 3.2 3.2 0.00 0.00 0.00 75 1010.8
20260510081304 14 270 3.2 3.2 0.00 0.00 0.00 74 1011.1
20260510080804 14 293 3.2 3.2 0.00 0.00 0.00 74 1011.1
20260510080304 14 293 3.2 4.8 0.00 0.00 0.00 74 1011.1
20260510075804 14 315 3.2 3.2 0.00 0.00 0.00 73 1011.1
20260510075306 14 248 0.0 0.0 0.00 0.00 0.00 73 1011.1
20260510074804 14 338 3.2 3.2 0.00 0.00 0.00 73 1011.1
20260510074304 14 248 0.0 0.0 0.00 0.00 0.00 73 1011.1
20260510073804 14 315 1.6 3.2 0.00 0.00 0.00 73 1011.1
20260510073305 14 293 3.2 3.2 0.00 0.00 0.00 73 1011.1
20260510072804 14 270 3.2 3.2 0.00 0.00 0.00 73 1011.1
20260510072306 15 270 3.2 3.2 0.00 0.00 0.00 73 1011.1
20260510071804 15 248 0.0 0.0 0.00 0.00 0.00 72 1011.1
20260510071304 15 270 3.2 3.2 0.00 0.00 0.00 73 1011.1
20260510070804 15 315 3.2 3.2 0.00 0.00 0.00 73 1011.1
20260510070304 15 270 3.2 3.2 0.00 0.00 0.00 72 1011.1
20260510065804 15 293 3.2 3.2 0.00 0.00 0.00 72 1011.1
20260510065306 15 315 3.2 3.2 0.00 0.00 0.00 71 1011.1
20260510064804 15 293 3.2 3.2 0.00 0.00 0.00 71 1011.1
20260510064304 15 293 3.2 3.2 0.00 0.00 0.00 70 1011.1
20260510063804 15 270 1.6 3.2 0.00 0.00 0.00 70 1011.1
20260510063303 15 338 3.2 3.2 0.00 0.00 0.00 70 1011.1
20260510062804 15 270 0.0 3.2 0.00 0.00 0.00 71 1011.1
20260510062307 15 45 4.8 6.4 0.00 0.00 0.00 71 1011.5
20260510061804 15 225 3.2 6.4 0.00 0.00 0.00 73 1011.5
20260510061304 15 158 6.4 6.4 0.00 0.00 0.00 75 1011.5
20260510060804 15 338 3.2 3.2 0.00 0.00 0.00 76 1011.5
20260510060304 15 293 3.2 3.2 0.00 0.00 0.00 76 1011.5
20260510055804 15 270 3.2 3.2 0.00 0.00 0.00 76 1011.1
20260510055306 15 248 3.2 3.2 0.00 0.00 0.00 76 1011.1
20260510054804 15 225 1.6 1.6 0.00 0.00 0.00 76 1011.1
20260510054304 15 293 6.4 6.4 0.00 0.00 0.00 76 1011.1
20260510053804 15 293 3.2 6.4 0.00 0.00 0.00 76 1011.1
20260510053304 15 203 0.0 0.0 0.00 0.00 0.00 75 1011.1
20260510052804 15 180 0.0 0.0 0.00 0.00 0.00 75 1011.1
20260510052306 15 270 0.0 3.2 0.00 0.00 0.00 74 1011.1
20260510051804 15 293 1.6 1.6 0.00 0.00 0.00 74 1011.1
20260510051304 15 225 0.0 0.0 0.00 0.00 0.00 74 1011.1
20260510050804 15 315 4.8 6.4 0.00 0.00 0.00 74 1011.1
20260510050303 15 270 0.0 0.0 0.00 0.00 0.00 74 1011.1
20260510045804 15 225 3.2 3.2 0.00 0.00 0.00 74 1010.8
20260510045306 15 270 3.2 3.2 0.00 0.00 0.00 74 1010.8
20260510044804 15 225 3.2 3.2 0.00 0.00 0.00 74 1010.8
20260510044304 15 203 0.0 1.6 0.00 0.00 0.00 74 1010.8
20260510043804 15 293 1.6 3.2 0.00 0.00 0.00 74 1010.8
20260510043303 15 23 0.0 0.0 0.00 0.00 0.00 73 1010.8
20260510042804 15 203 0.0 3.2 0.00 0.00 0.00 72 1010.8
20260510042306 15 135 0.0 1.6 0.00 0.00 0.00 72 1010.4
20260510041804 15 293 3.2 3.2 0.00 0.00 0.00 71 1010.4
20260510041303 15 113 1.6 3.2 0.00 0.00 0.00 71 1010.4
20260510040804 15 203 3.2 3.2 0.00 0.00 0.00 71 1010.4
20260510040303 15 293 1.6 3.2 0.00 0.00 0.00 71 1010.4
20260510035803 15 68 3.2 3.2 0.00 0.86 0.86 70 1010.4
20260510035306 15 0 3.2 3.2 0.00 0.86 0.86 71 1010.4
20260510034804 15 135 0.0 0.0 0.00 0.86 0.86 71 1010.4
20260510034304 15 203 0.0 0.0 0.00 0.86 0.86 70 1010.4
20260510033803 16 270 3.2 3.2 0.00 0.86 0.86 70 1010.4
20260510033304 16 225 0.0 0.0 0.00 0.86 0.86 70 1010.1
20260510032804 16 90 3.2 3.2 0.00 0.86 0.86 70 1010.1
20260510032306 16 90 0.0 0.0 0.00 0.86 0.86 70 1010.1
20260510031804 16 68 0.0 0.0 0.00 0.86 0.86 69 1010.1
20260510031304 16 90 0.0 0.0 0.00 0.86 0.86 69 1010.1
20260510030804 16 23 3.2 3.2 0.00 0.86 0.86 68 1010.1
20260510030303 16 158 0.0 0.0 0.00 0.86 0.86 68 1010.1
20260510025804 16 225 1.6 1.6 0.00 0.86 0.86 67 1010.1
20260510025306 16 158 0.0 0.0 0.00 0.86 0.86 67 1010.1
20260510024804 16 203 0.0 0.0 0.00 0.86 0.86 68 1010.1
20260510024303 16 225 0.0 0.0 0.00 0.86 0.86 67 1010.1
20260510023804 16 68 3.2 3.2 0.00 0.86 0.86 66 1010.1
20260510023304 16 135 3.2 3.2 0.00 0.86 0.86 67 1009.8
20260510022804 16 23 1.6 3.2 0.00 0.86 0.86 66 1009.8
20260510022306 16 293 4.8 4.8 0.00 0.86 0.86 68 1009.8
20260510021804 16 135 0.0 0.0 0.00 0.86 0.86 67 1009.8
20260510021304 16 135 0.0 0.0 0.00 0.86 0.86 67 1009.8
20260510020804 16 135 1.6 3.2 0.00 0.86 0.86 67 1009.8
20260510020304 16 158 0.0 1.6 0.00 0.86 0.86 65 1009.8
20260510015804 17 203 1.6 3.2 0.00 0.86 0.86 65 1009.4
20260510015306 17 113 1.6 4.8 0.00 0.86 0.86 64 1009.4
20260510014804 17 113 0.0 0.0 0.00 0.86 0.86 65 1009.1
20260510014304 17 158 0.0 3.2 0.00 0.86 0.86 64 1009.1
20260510013804 17 293 3.2 3.2 0.00 0.86 0.86 63 1009.1
20260510013304 17 90 0.0 0.0 0.00 0.86 0.86 63 1009.1
20260510012804 17 270 3.2 3.2 0.00 0.86 0.86 63 1009.1
20260510012306 17 23 0.0 0.0 0.00 0.86 0.86 62 1008.8
20260510011804 17 203 3.2 3.2 0.00 0.86 0.86 61 1008.8
20260510011304 17 135 0.0 0.0 0.00 0.86 0.86 62 1009.1
20260510010804 17 225 3.2 3.2 0.00 0.86 0.86 61 1009.1
20260510010304 17 158 0.0 0.0 0.00 0.86 0.86 61 1009.1
20260510005804 18 203 0.0 0.0 0.00 0.86 0.86 60 1008.8
20260510005306 18 203 0.0 1.6 0.00 0.86 0.86 60 1008.8
20260510004803 18 293 0.0 1.6 0.00 0.86 0.86 59 1008.8
20260510004304 18 270 0.0 0.0 0.00 0.86 0.86 58 1008.8
20260510003804 18 180 3.2 3.2 0.00 0.86 0.86 57 1008.8
20260510003304 18 135 4.8 4.8 0.00 0.86 0.86 57 1008.4
20260510002809 18 0 3.2 3.2 0.00 0.86 0.86 58 1008.4
20260510002306 19 113 3.2 3.2 0.00 0.86 0.86 57 1008.4
20260510001804 19 158 3.2 3.2 0.00 0.86 0.86 55 1008.4
20260510001303 19 180 3.2 3.2 0.00 0.86 0.86 56 1008.1
20260510000804 19 270 6.4 6.4 0.00 0.86 0.86 55 1008.1
20260510000304 20 0 0.0 0.0 0.00 0.86 0.86 54 1008.1
20260509235804 20 270 3.2 3.2 0.00 0.86 0.86 53 1008.1
20260509235306 20 180 3.2 3.2 0.00 0.86 0.86 53 1008.1
20260509234804 20 23 3.2 6.4 0.00 0.86 0.86 52 1008.1
20260509234304 20 248 3.2 8.0 0.00 0.86 0.86 52 1008.1
20260509233804 20 270 3.2 3.2 0.00 0.86 0.86 52 1008.1
20260509233304 20 270 6.4 8.0 0.00 0.86 0.86 52 1008.1
20260509232306 20 270 3.2 6.4 0.00 0.86 0.86 53 1008.1
20260509231804 20 270 8.0 8.0 0.00 0.86 0.86 52 1008.1
20260509231304 21 248 4.8 9.7 0.00 0.86 0.86 52 1008.1
20260509230804 20 225 6.4 8.0 0.00 0.86 0.86 52 1008.1
20260509230303 20 248 6.4 6.4 0.00 0.86 0.86 53 1008.1
20260509225804 21 135 6.4 8.0 0.00 0.86 0.86 52 1007.7
20260509225306 21 45 3.2 3.2 0.00 0.86 0.86 50 1007.7
20260509224803 21 248 3.2 8.0 0.00 0.86 0.86 51 1008.1
20260509224304 21 23 6.4 6.4 0.00 0.86 0.86 50 1008.1
20260509223804 21 45 3.2 3.2 0.00 0.86 0.86 51 1008.1
20260509223304 21 90 6.4 6.4 0.00 0.86 0.86 52 1007.7
20260509222804 21 293 4.8 8.0 0.00 0.86 0.86 50 1007.7
20260509222307 21 203 9.7 11.3 0.00 0.86 0.86 50 1007.7
20260509221804 21 225 6.4 6.4 0.00 0.86 0.86 52 1007.7
20260509221303 21 90 4.8 4.8 0.00 0.86 0.86 54 1008.1
20260509220804 21 180 3.2 3.2 0.00 0.86 0.86 52 1008.1
20260509220304 21 270 9.7 9.7 0.00 0.86 0.86 53 1008.1
20260509215804 21 0 4.8 8.0 0.00 0.86 0.86 54 1008.1
20260509215306 22 23 6.4 6.4 0.00 0.86 0.86 52 1008.1
20260509214803 21 203 3.2 3.2 0.00 0.86 0.86 51 1008.1
20260509214303 21 315 8.0 8.0 0.00 0.86 0.86 51 1008.1
20260509213804 21 23 4.8 11.3 0.00 0.86 0.86 50 1008.1
20260509213304 22 203 3.2 6.4 0.00 0.86 0.86 51 1008.1
20260509212804 22 315 8.0 9.7 0.00 0.86 0.86 48 1008.1
20260509212306 22 203 4.8 4.8 0.00 0.86 0.86 50 1008.1
20260509211804 22 203 3.2 11.3 0.00 0.86 0.86 50 1008.1
20260509211304 21 158 3.2 4.8 0.00 0.86 0.86 52 1008.1
20260509210804 22 203 3.2 3.2 0.00 0.86 0.86 51 1008.1
20260509210304 22 0 3.2 4.8 0.00 0.86 0.86 52 1008.1
20260509205804 22 270 6.4 8.0 0.00 0.86 0.86 52 1008.1
20260509205306 21 90 3.2 3.2 0.00 0.86 0.86 56 1008.1
20260509204804 21 113 4.8 6.4 0.00 0.86 0.86 53 1008.4
20260509204304 21 113 3.2 3.2 0.00 0.86 0.86 53 1008.4
20260509203804 21 0 3.2 4.8 0.00 0.86 0.86 52 1008.4
20260509203304 22 270 8.0 8.0 0.00 0.86 0.86 52 1008.4
20260509202804 21 113 6.4 8.0 0.00 0.86 0.86 53 1008.4
20260509202306 21 158 3.2 6.4 0.00 0.86 0.86 51 1008.4
20260509201803 22 270 8.0 9.7 0.00 0.86 0.86 53 1008.4
20260509201303 21 338 6.4 8.0 0.00 0.86 0.86 52 1008.8
20260509200804 21 203 3.2 6.4 0.00 0.86 0.86 52 1008.8
20260509200304 21 270 3.2 8.0 0.00 0.86 0.86 53 1008.8
20260509195803 21 90 8.0 8.0 0.00 0.86 0.86 55 1008.8
20260509195306 20 158 3.2 6.4 0.00 0.86 0.86 56 1008.8
20260509194804 20 0 4.8 4.8 0.00 0.86 0.86 57 1008.8
20260509194303 19 113 3.2 3.2 0.00 0.86 0.86 60 1008.8
20260509193804 20 68 3.2 11.3 0.00 0.86 0.86 58 1008.8
20260509193303 21 203 9.7 11.3 0.00 0.86 0.86 57 1009.1
20260509192804 20 270 9.7 9.7 0.00 0.86 0.86 57 1009.1
20260509192306 20 45 3.2 3.2 0.00 0.86 0.86 56 1009.1
20260509191804 21 180 8.0 8.0 0.00 0.86 0.86 57 1009.1
20260509191304 20 45 6.4 8.0 0.00 0.86 0.86 60 1009.1
20260509190804 20 90 6.4 6.4 0.00 0.86 0.86 64 1009.1
20260509190304 19 90 3.2 3.2 0.00 0.86 0.86 64 1009.1
20260509185804 19 0 3.2 3.2 0.00 0.86 0.86 64 1009.1
20260509185306 18 180 6.4 8.0 0.00 0.86 0.86 65 1009.1
20260509184804 19 270 6.4 11.3 0.00 0.86 0.86 64 1009.1
20260509184304 20 45 3.2 3.2 0.00 0.86 0.86 64 1009.1
20260509183804 19 315 3.2 3.2 0.00 0.86 0.86 66 1009.1
20260509183304 19 135 6.4 9.7 0.00 0.86 0.86 63 1009.1
20260509182804 18 45 6.4 6.4 0.00 0.86 0.86 65 1009.1
20260509182306 19 315 3.2 4.8 0.00 0.86 0.86 62 1009.4
20260509181804 19 203 4.8 4.8 0.00 0.86 0.86 61 1009.4
20260509181303 20 270 3.2 11.3 0.00 0.86 0.86 63 1009.4
20260509180804 19 203 3.2 3.2 0.00 0.86 0.86 66 1009.4